カタログに戻る

COSMOS 2251 DEB

運用中LEO
NORAD 37993·DEBRIS·🇷🇺 Russia

打ち上げ Jun 16, 1993 から Plesetsk Cosmodrome

Loading…

次のパス (今後24時間)

TLE

最新Source: Space-Track

元期: Sep 13, 2026, 13:31 UTC

1 37993U 93036BQU 26256.56323550  .00003156  00000-0  62448-3 0  9994
2 37993  74.0252   0.7575 0021459  18.4262 341.7677 14.62633116693322

AllMySatでCOSMOS 2251 DEBをリアルタイム追跡

Download on the App Store